When you browse on this site, cookies collect data to enhance your experience and personalize the content and advertising you see.
Visit our Privacy Policy to learn more. By continuing to use the site, you agree to this use of cookies and data.

Hourly Weather Rokotovo

Today, 3 July, Friday

Time Temperature Precipitation Wind Pressure Humidity
00:00 +16°C° 0 mm 1 mps 743 mmHg 97%
01:00 +16°C° 0 mm 2 mps 743 mmHg 97%
02:00 +16°C° 0 mm 2 mps 744 mmHg 98%
03:00 +16°C° 0 mm 2 mps 744 mmHg 97%
04:00 +16°C° 0 mm 2 mps 744 mmHg 97%
05:00 +16°C° 0 mm 1 mps 744 mmHg 97%
06:00 +18°C° 0 mm 1 mps 745 mmHg 90%
07:00 +19°C° 0 mm 1 mps 745 mmHg 83%
08:00 +20°C° 0 mm 1 mps 746 mmHg 76%
09:00 +22°C° 0 mm 1 mps 746 mmHg 67%
10:00 +23°C° 0 mm 2 mps 746 mmHg 59%
11:00 +24°C° 0 mm 2 mps 746 mmHg 50%
12:00 +25°C° 0 mm 2 mps 746 mmHg 50%
13:00 +25°C° 0 mm 2 mps 746 mmHg 50%
14:00 +26°C° 0 mm 1 mps 746 mmHg 49%
15:00 +25°C° 0 mm 1 mps 746 mmHg 55%
16:00 +24°C° 0 mm 2 mps 745 mmHg 60%
17:00 +24°C° 0 mm 2 mps 745 mmHg 66%
18:00 +21°C° 0.1 mm 2 mps 745 mmHg 75%
19:00 +20°C° 0.1 mm 2 mps 745 mmHg 84%
20:00 +18°C° 0.1 mm 2 mps 745 mmHg 93%
21:00 +19°C° 0 mm 1 mps 745 mmHg 94%
22:00 +18°C° 0 mm 1 mps 745 mmHg 95%
23:00 +18°C° 0 mm 1 mps 745 mmHg 96%

Tomorrow, 4 July, Saturday

Time Temperature Precipitation Wind Pressure Humidity
00:00 +16°C° 0 mm 1 mps 745 mmHg 96%
01:00 +15°C° 0 mm 0 mps 745 mmHg 97%
02:00 +15°C° 0 mm 0 mps 745 mmHg 97%
03:00 +15°C° 0 mm 0 mps 745 mmHg 96%
04:00 +15°C° 0 mm 0 mps 745 mmHg 96%
05:00 +16°C° 0 mm 0 mps 745 mmHg 96%
06:00 +19°C° 0 mm 1 mps 745 mmHg 89%
07:00 +21°C° 0 mm 1 mps 745 mmHg 83%
08:00 +22°C° 0 mm 1 mps 746 mmHg 77%
09:00 +23°C° 0 mm 1 mps 746 mmHg 67%
10:00 +25°C° 0 mm 2 mps 746 mmHg 58%
11:00 +26°C° 0 mm 2 mps 746 mmHg 48%
12:00 +27°C° 0 mm 2 mps 746 mmHg 47%
13:00 +27°C° 0 mm 2 mps 746 mmHg 46%
14:00 +27°C° 0 mm 3 mps 745 mmHg 45%
15:00 +27°C° 0 mm 3 mps 745 mmHg 47%
16:00 +27°C° 0 mm 3 mps 745 mmHg 49%
17:00 +26°C° 0 mm 2 mps 745 mmHg 51%
18:00 +25°C° 0 mm 2 mps 745 mmHg 60%
19:00 +23°C° 0 mm 2 mps 745 mmHg 68%
20:00 +21°C° 0 mm 1 mps 745 mmHg 77%
21:00 +20°C° 0 mm 1 mps 745 mmHg 80%
22:00 +19°C° 0 mm 1 mps 745 mmHg 83%
23:00 +18°C° 0 mm 1 mps 745 mmHg 87%

Day after tomorrow, 5 July, Sunday

Time Temperature Precipitation Wind Pressure Humidity
00:00 +16°C° 0 mm 1 mps 745 mmHg 88%
01:00 +15°C° 0 mm 1 mps 746 mmHg 89%
02:00 +15°C° 0 mm 1 mps 746 mmHg 91%
03:00 +15°C° 0 mm 1 mps 746 mmHg 90%
04:00 +16°C° 0 mm 1 mps 746 mmHg 89%
05:00 +16°C° 0 mm 1 mps 745 mmHg 88%
06:00 +18°C° 0 mm 1 mps 745 mmHg 83%
07:00 +18°C° 0 mm 2 mps 746 mmHg 79%
08:00 +19°C° 0 mm 2 mps 746 mmHg 74%
09:00 +20°C° 0 mm 2 mps 745 mmHg 75%
10:00 +20°C° 0 mm 2 mps 745 mmHg 75%
11:00 +20°C° 0 mm 2 mps 745 mmHg 75%
12:00 +21°C° 0.1 mm 2 mps 745 mmHg 73%
13:00 +22°C° 0.1 mm 3 mps 745 mmHg 71%
14:00 +24°C° 0.1 mm 3 mps 744 mmHg 69%
15:00 +24°C° 0.2 mm 3 mps 744 mmHg 68%
16:00 +24°C° 0.2 mm 3 mps 744 mmHg 68%
17:00 +24°C° 0.2 mm 3 mps 744 mmHg 67%
18:00 +23°C° 0.1 mm 2 mps 744 mmHg 73%
19:00 +21°C° 0.1 mm 2 mps 744 mmHg 78%
20:00 +19°C° 0.1 mm 2 mps 743 mmHg 84%
21:00 +19°C° 0 mm 2 mps 743 mmHg 88%
22:00 +18°C° 0 mm 2 mps 743 mmHg 92%
23:00 +17°C° 0 mm 2 mps 743 mmHg 96%

6 July, Monday

Time Temperature Precipitation Wind Pressure Humidity
00:00 +17°C° 0 mm 2 mps 743 mmHg 96%
01:00 +17°C° 0 mm 3 mps 743 mmHg 96%
02:00 +17°C° 0 mm 3 mps 742 mmHg 96%
03:00 +17°C° 0 mm 3 mps 742 mmHg 94%
04:00 +17°C° 0 mm 3 mps 742 mmHg 92%
05:00 +18°C° 0 mm 3 mps 742 mmHg 90%
06:00 +19°C° 0 mm 4 mps 742 mmHg 87%
07:00 +20°C° 0 mm 4 mps 742 mmHg 83%
08:00 +21°C° 0 mm 4 mps 742 mmHg 80%
09:00 +22°C° 0 mm 4 mps 742 mmHg 76%
10:00 +23°C° 0 mm 4 mps 742 mmHg 73%
11:00 +25°C° 0 mm 4 mps 742 mmHg 70%
12:00 +25°C° 0.3 mm 4 mps 741 mmHg 71%
13:00 +25°C° 0.3 mm 4 mps 741 mmHg 72%
14:00 +25°C° 0.3 mm 4 mps 741 mmHg 73%
15:00 +25°C° 0.3 mm 4 mps 741 mmHg 74%
16:00 +25°C° 0.3 mm 4 mps 741 mmHg 75%
17:00 +25°C° 0.3 mm 4 mps 740 mmHg 76%
18:00 +23°C° 0.2 mm 4 mps 740 mmHg 81%
19:00 +22°C° 0.2 mm 4 mps 740 mmHg 85%
20:00 +21°C° 0.2 mm 3 mps 740 mmHg 89%
21:00 +20°C° 0.1 mm 3 mps 740 mmHg 92%
22:00 +20°C° 0.1 mm 2 mps 741 mmHg 94%
23:00 +19°C° 0.1 mm 2 mps 741 mmHg 97%

7 July, Tuesday

Time Temperature Precipitation Wind Pressure Humidity
00:00 +19°C° 0 mm 2 mps 741 mmHg 97%
01:00 +18°C° 0 mm 2 mps 741 mmHg 97%
02:00 +19°C° 0 mm 1 mps 741 mmHg 96%
03:00 +19°C° 0 mm 1 mps 741 mmHg 96%
04:00 +19°C° 0 mm 1 mps 742 mmHg 96%
05:00 +18°C° 0 mm 1 mps 742 mmHg 95%
06:00 +18°C° 0 mm 2 mps 742 mmHg 88%
07:00 +18°C° 0 mm 2 mps 742 mmHg 81%
08:00 +18°C° 0 mm 2 mps 743 mmHg 73%
09:00 +20°C° 0 mm 3 mps 743 mmHg 64%
10:00 +21°C° 0 mm 3 mps 743 mmHg 55%
11:00 +22°C° 0 mm 3 mps 743 mmHg 45%
12:00 +22°C° 0 mm 3 mps 743 mmHg 46%
13:00 +22°C° 0 mm 3 mps 743 mmHg 46%
14:00 +22°C° 0 mm 3 mps 743 mmHg 47%
15:00 +22°C° 0 mm 3 mps 743 mmHg 49%
16:00 +23°C° 0 mm 2 mps 743 mmHg 52%
17:00 +23°C° 0 mm 2 mps 743 mmHg 54%
18:00 +20°C° 0 mm 2 mps 743 mmHg 61%
19:00 +19°C° 0 mm 2 mps 743 mmHg 68%
20:00 +17°C° 0 mm 2 mps 743 mmHg 76%
21:00 +16°C° 0 mm 2 mps 744 mmHg 77%
22:00 +16°C° 0 mm 2 mps 744 mmHg 78%
23:00 +15°C° 0 mm 2 mps 744 mmHg 79%

8 July, Wednesday

Time Temperature Precipitation Wind Pressure Humidity
00:00 +14°C° 0 mm 2 mps 744 mmHg 82%
01:00 +12°C° 0 mm 2 mps 744 mmHg 86%
02:00 +10°C° 0 mm 2 mps 745 mmHg 90%
03:00 +10°C° 0 mm 2 mps 745 mmHg 88%
04:00 +10°C° 0 mm 2 mps 745 mmHg 87%
05:00 +10°C° 0 mm 2 mps 745 mmHg 86%
06:00 +12°C° 0 mm 2 mps 745 mmHg 78%
07:00 +14°C° 0 mm 2 mps 745 mmHg 71%
08:00 +16°C° 0 mm 2 mps 745 mmHg 63%
09:00 +17°C° 0 mm 2 mps 745 mmHg 58%
10:00 +19°C° 0 mm 2 mps 745 mmHg 53%
11:00 +20°C° 0 mm 2 mps 746 mmHg 47%
12:00 +21°C° 0 mm 2 mps 745 mmHg 46%
13:00 +21°C° 0 mm 2 mps 745 mmHg 44%
14:00 +23°C° 0 mm 2 mps 745 mmHg 43%
15:00 +23°C° 0 mm 2 mps 745 mmHg 45%
16:00 +23°C° 0 mm 2 mps 745 mmHg 46%
17:00 +22°C° 0 mm 1 mps 745 mmHg 48%
18:00 +21°C° 0 mm 1 mps 745 mmHg 55%
19:00 +19°C° 0 mm 1 mps 745 mmHg 63%
20:00 +18°C° 0 mm 1 mps 745 mmHg 70%
21:00 +15°C° 0 mm 1 mps 745 mmHg 75%
22:00 +14°C° 0 mm 1 mps 746 mmHg 80%
23:00 +13°C° 0 mm 1 mps 746 mmHg 85%
Show more